Location: Boitzum
(52.1496°N, 9.6943°E)
Time: 00:14:45
(UTC+00:00)

Cosmos 1408 Rocket - Pass Details

Date: 13 January 2026
Orbit: 594 x 623 km, 82.6° (Epoch: 9 February)

Event Time Altitude Azimuth Distance (km) Brightness Sun altitude
Rises 05:50:35 0° 207° (SSW) 2,865 6.9 -13.7°
Reaches altitude 10° 05:52:53 10° 215° (SW) 1,960 6.0 -13.4°
Maximum altitude 05:57:01 42° 287° (WNW) 865 3.8 -12.8°
Drops below altitude 10° 06:01:09 10° 359° (N) 1,958 5.9 -12.2°
Sets 06:03:28 0° 7° (N) 2,862 6.8 -11.9°
